This is the latest recevied weather packets stored in our database for station/object G8PZT. If no packets are shown the sender has not sent any weather packets the latest 10 day(s).
| Time | Temp. | Humidity | Pressure | Rain* | Wind** | Luminosity | Snow |
|---|---|---|---|---|---|---|---|
| 1777832515 | 14.44° C | 47% | - | 0 mm | - | - | - |
| 1777832402 | 14.44° C | 47% | - | 0 mm | - | - | - |
| 1777831916 | 15° C | 45% | - | 0 mm | - | - | - |
| 1777831202 | 15° C | 45% | - | 0 mm | - | - | - |
| 1777830716 | 15° C | 45% | - | 0 mm | - | - | - |
| 1777830116 | 15° C | 44% | - | 0 mm | - | - | - |
| 1777830002 | 15° C | 44% | - | 0 mm | - | - | - |
| 1777829516 | 15° C | 45% | - | 0 mm | - | - | - |
| 1777828916 | 15.56° C | 42% | - | 0 mm | - | - | - |
| 1777828803 | 15.56° C | 42% | - | 0 mm | - | - | - |
| 1777828316 | 15.56° C | 40% | - | 0 mm | - | - | - |
| 1777827716 | 16.67° C | 35% | - | 0 mm | - | - | - |
| 1777827603 | 16.67° C | 35% | - | 0 mm | - | - | - |
| 1777827116 | 17.78° C | 35% | - | 0 mm | - | - | - |
| 1777826515 | 17.22° C | 34% | - | 0 mm | - | - | - |
| 1777826402 | 17.22° C | 34% | - | 0 mm | - | - | - |
| 1777825915 | 17.78° C | 33% | - | 0 mm | - | - | - |
| 1777825202 | 18.33° C | 31% | - | 0 mm | - | - | - |
| 1777824715 | 17.78° C | 30% | - | 0 mm | - | - | - |
| 1777824115 | 18.89° C | 26% | - | 0 mm | - | - | - |
| 1777823515 | 20.56° C | 25% | - | 0 mm | - | - | - |
| 1777822916 | 19.44° C | 24% | - | 0 mm | - | - | - |
| 1777822803 | 19.44° C | 23% | - | 0 mm | - | - | - |
| 1777822316 | 20° C | 22% | - | 0 mm | - | - | - |
| 1777821716 | 20.56° C | 23% | - | 0 mm | - | - | - |
* Rain latest hour (hover to see other rain measurements)
** Current wind speed in m/s (hover to see current wind gust speed)